Regional Weather Roundup
Issued by NWS State College, PA

Home | Current Version | Previous Version | Text Only | Print | Product List | Glossary Off
Versions: 1 2 3 4 5 6 7 8 9 10 11 12 13 14 15 16 17 18 19 20 21 22 23 24 25 26 27 28 29 30 31 32 33 34 35 36 37 38 39 40 41 42 43 44 45 46 47 48 49 50

000
ASUS41 KCTP 272110
RWRCTP

REGIONAL WEATHER ROUNDUP
NATIONAL WEATHER SERVICE STATE COLLEGE PA
400 PM EST MON FEB 27 2017

Note: "fair" indicates few or no clouds below 12,000 feet with no
significant weather and/or obstructions to visibility.

* = STATION THAT DOES NOT REPORT PRECIPITATION /E.G. RAIN...SNOW...ETC/
    THUNDER OR FOG.

PAZ002>004-007>009-013>016-020>023-029>032-272200-
WESTERN PENNSYLVANIA

CITY           SKY/WX    TMP DP  RH WIND       PRES   REMARKS
ERIE           CLOUDY    47  23  38 NW6       30.25S
MEADVILLE      CLOUDY    44  23  43 S12       30.24S
FRANKLIN*      CLOUDY    45  25  45 SW6       30.27S
NEW CASTLE     CLOUDY    45  31  58 SW8       30.28R
BEAVER COUNTY  CLOUDY    43  34  70 S10       30.28R
BUTLER*        CLOUDY    43  34  70 S7        30.30R
PITTSBURGH INT LGT RAIN  42  38  85 S8        30.29S
PITTSBURGH     LGT RAIN  42  36  79 S8        30.29S
INDIANA*       CLOUDY    43  37  81 SW13      30.32F
LATROBE        LGT RAIN  41  39  93 S6        30.32F
WASHINGTON CO* CLOUDY    39  37  93 CALM      30.31F
$$

PAZ004>006-010>012-017>019-024>028-033>037-041-042-045-046-049>053-272200-
CENTRAL PENNSYLVANIA

CITY           SKY/WX    TMP DP  RH WIND       PRES   REMARKS
BRADFORD       CLOUDY    42  22  44 SW9       30.24R
DUBOIS         CLOUDY    44  22  41 SW8       30.26R
CLEARFIELD       N/A    N/A N/A N/A MISG      30.28R
JOHNSTOWN      LGT RAIN  38  36  92 S5        30.27S
ALTOONA        LGT RAIN  43  37  79 W3        30.31F
STATE COLLEGE  CLOUDY    45  30  57 SW12      30.32R
WILLIAMSPORT   CLOUDY    47  22  37 S8        30.32R
SELINSGROVE    CLOUDY    47  30  51 S13       30.36R
FT INDIANTOWN  PTSUNNY   48  33  55 W7        30.37R
CAPITAL CITY   CLOUDY    50  31  48 W5        30.37S
HARRISBURG     CLOUDY    50  33  52 NW3       30.37R
YORK           CLOUDY    51  28  41 W6        30.36R
$$

PAZ038>040-043-044-047-048-054-055-060>062-067>071-272200-
EASTERN PENNSYLVANIA

CITY           SKY/WX    TMP DP  RH WIND       PRES   REMARKS
SCRANTON       CLOUDY    50  23  34 SW13G23   30.30R
MOUNT POCONO   MOSUNNY   42  23  46 SW12G22   30.29S
ALLENTOWN      CLOUDY    52  27  38 SW13      30.36R
QUAKERTOWN*    CLOUDY    50  28  43 SW9       30.37R
READING        CLOUDY    49  34  56 SW13G23   30.37R
LANCASTER      LGT RAIN  48  39  71 W9        30.38R
COATESVILLE    CLOUDY    50  28  43 SW9G18    30.39R
POTTSTOWN      CLOUDY    50  28  42 SW12G22   30.40R
BLUE BELL      CLOUDY    50  30  46 SW6       30.37R
DOYLESTOWN     CLOUDY    52  25  35 SW9       30.36R
WILLOW GROVE   NOT AVBL
NORTH PHILA    CLOUDY    54  28  36 SW13G20   30.40R
PHILADELPHIA   CLOUDY    54  29  38 SW9       30.39R
$$



USA.gov is the U.S. government's official web portal to all federal, state and local government web resources and services.